Location: Unspecified
(49.2170°N, 0.0000°E)
Time: 13:44:52
(UTC+00:00)

Vanguard 3 - Pass Details

Date: 25 January 2021
Orbit: 508 x 3261 km, 33.3° (Epoch: 28 February)

Event Time Altitude Azimuth Distance (km) Brightness Sun altitude
Rises 09:27:03 0° 263° (W) 5,276 11.0 12.7°
Reaches altitude 10° 09:31:50 10° 246° (WSW) 4,758 11.0 13.2°
Maximum altitude 09:39:58 18° 211° (SSW) 4,781 11.5 14.0°
Drops below altitude 10° 09:49:59 10° 177° (S) 5,975 12.7 14.9°
Sets 09:57:28 0° 161° (SSE) 7,192 13.6 15.6°
